Location: Newark
(10.6000°N, 104.1667°E)
Time: 23:13:27
(UTC+00:00)

Envisat - Visible Passes

Search period start: 20 November 2019 00:00
Search period end: 30 November 2019 00:00
Orbit: 764 x 766 km, 98.1° (Epoch: 20 November)

Date Brightness Start Highest point End Pass type
(mag) Time Alt. Az. Time Alt. Az. Time Alt. Az.
20 Nov 3.1 11:29:48 10° S 11:34:53 80° W 11:39:57 10° NNW visible
21 Nov 3.5 10:53:38 10° SE 10:58:14 36° ENE 11:02:50 10° N visible
21 Nov 6.1 12:34:39 10° SW 12:37:05 13° W 12:39:30 10° WNW visible
22 Nov 4.5 11:55:39 10° SSW 12:00:20 38° W 12:05:01 10° NNW visible
23 Nov 2.9 11:18:35 10° SSE 11:23:38 76° ENE 11:28:41 10° N visible
24 Nov 5.7 12:22:21 10° SW 12:25:48 19° W 12:29:16 10° WNW visible
25 Nov 3.9 11:44:09 10° S 11:49:04 52° W 11:53:59 10° NNW visible
25 Nov 6.3 22:33:02 10° ENE 22:35:30 14° E 22:37:57 10° SE visible
26 Nov 3.1 11:07:27 10° SSE 11:12:23 55° ENE 11:17:19 10° N visible
27 Nov 5.3 12:10:25 10° SSW 12:14:32 25° W 12:18:38 10° NW visible
28 Nov 3.3 11:32:46 10° S 11:37:49 71° WSW 11:42:52 10° NNW visible
29 Nov 3.4 10:56:26 10° SE 11:01:10 40° ENE 11:05:52 10° N visible
29 Nov 6.2 12:38:14 10° WSW 12:40:01 12° W 12:41:49 10° WNW visible
